Time,TemperatureF,DewpointF,PressureIn,WindDirection,WindDirectionDegrees,WindSpeedMPH,WindSpeedGustMPH,Humidity,HourlyPrecipIn,Conditions,Clouds,dailyrainin,SoftwareType,DateUTC
2013-03-07 00:00:00,55.1,44.3,30.14,NNE,18,0.0,8.0,67,0.00,,,0.01,Weather View 32 v70,2013-03-07 05:00:00,
2013-03-07 00:01:00,55.1,44.3,30.14,NNE,17,0.0,8.0,67,0.00,,,0.00,Weather View 32 v70,2013-03-07 05:01:00,
2013-03-07 00:06:00,55.0,43.8,30.13,North,5,3.0,9.0,66,0.00,,,0.00,Weather View 32 v70,2013-03-07 05:06:00,
2013-03-07 00:11:00,55.0,43.8,30.13,North,5,2.0,9.0,66,0.00,,,0.00,Weather View 32 v70,2013-03-07 05:11:00,
2013-03-07 00:16:00,54.9,43.7,30.13,ENE,64,7.0,9.0,66,0.00,,,0.00,Weather View 32 v70,2013-03-07 05:16:00,
2013-03-07 00:21:00,54.8,43.6,30.13,NNE,17,0.0,9.0,66,0.00,,,0.00,Weather View 32 v70,2013-03-07 05:21:00,
2013-03-07 00:26:00,54.6,43.4,30.13,NNE,25,2.0,9.0,66,0.00,,,0.00,Weather View 32 v70,2013-03-07 05:26:00,
2013-03-07 00:31:00,54.6,43.4,30.13,NNE,26,1.0,9.0,66,0.00,,,0.00,Weather View 32 v70,2013-03-07 05:31:00,
2013-03-07 00:36:00,54.6,43.4,30.13,NE,34,3.0,10.0,66,0.00,,,0.00,Weather View 32 v70,2013-03-07 05:36:00,
2013-03-07 00:41:00,54.6,43.4,30.13,NE,49,1.0,10.0,66,0.00,,,0.00,Weather View 32 v70,2013-03-07 05:41:00,
2013-03-07 00:46:00,54.5,43.4,30.13,NNW,340,2.0,10.0,66,0.00,,,0.00,Weather View 32 v70,2013-03-07 05:46:00,
2013-03-07 00:51:00,54.4,43.3,30.13,North,5,1.0,10.0,66,0.00,,,0.00,Weather View 32 v70,2013-03-07 05:51:00,
2013-03-07 00:56:00,54.2,42.7,30.13,NE,46,0.0,10.0,65,0.00,,,0.00,Weather View 32 v70,2013-03-07 05:56:00,
2013-03-07 01:01:00,54.1,43.0,30.13,North,355,0.0,10.0,66,0.00,,,0.00,Weather View 32 v70,2013-03-07 06:01:00,
2013-03-07 01:06:00,54.0,42.9,30.14,NNE,21,0.0,10.0,66,0.00,,,0.00,Weather View 32 v70,2013-03-07 06:06:00,
2013-03-07 01:11:00,53.9,42.8,30.14,NNE,13,0.0,10.0,66,0.00,,,0.00,Weather View 32 v70,2013-03-07 06:11:00,
2013-03-07 01:16:00,53.8,42.7,30.14,NNE,13,0.0,10.0,66,0.00,,,0.00,Weather View 32 v70,2013-03-07 06:16:00,
2013-03-07 01:21:00,53.7,43.0,30.14,North,5,0.0,10.0,67,0.00,,,0.00,Weather View 32 v70,2013-03-07 06:21:00,
2013-03-07 01:26:00,53.6,42.9,30.14,NNE,21,3.0,10.0,67,0.00,,,0.00,Weather View 32 v70,2013-03-07 06:26:00,
2013-03-07 01:31:00,53.5,43.2,30.14,North,5,0.0,10.0,68,0.00,,,0.00,Weather View 32 v70,2013-03-07 06:31:00,
2013-03-07 01:36:00,53.6,42.9,30.13,NNE,31,6.0,10.0,67,0.00,,,0.00,Weather View 32 v70,2013-03-07 06:36:00,
2013-03-07 01:41:00,53.5,43.2,30.14,NNE,22,0.0,10.0,68,0.00,,,0.00,Weather View 32 v70,2013-03-07 06:41:00,
2013-03-07 01:46:00,53.3,42.2,30.14,NE,38,0.0,7.0,66,0.00,,,0.00,Weather View 32 v70,2013-03-07 06:46:00,
2013-03-07 01:51:00,53.1,42.0,30.14,NE,46,6.0,7.0,66,0.00,,,0.00,Weather View 32 v70,2013-03-07 06:51:00,
2013-03-07 01:56:00,53.0,41.9,30.14,NNE,17,2.0,7.0,66,0.00,,,0.00,Weather View 32 v70,2013-03-07 06:56:00,
2013-03-07 02:01:00,52.9,41.4,30.14,NE,36,0.0,9.0,65,0.00,,,0.00,Weather View 32 v70,2013-03-07 07:01:00,
2013-03-07 02:06:00,52.8,41.3,30.14,NNE,19,2.0,9.0,65,0.00,,,0.00,Weather View 32 v70,2013-03-07 07:06:00,
2013-03-07 02:11:00,52.7,41.2,30.14,NNE,25,0.0,9.0,65,0.00,,,0.00,Weather View 32 v70,2013-03-07 07:11:00,
2013-03-07 02:17:00,52.4,41.4,30.13,NE,36,4.0,9.0,66,0.00,,,0.00,Weather View 32 v70,2013-03-07 07:17:00,
2013-03-07 02:22:00,52.2,41.2,30.13,NE,42,3.0,9.0,66,0.00,,,0.00,Weather View 32 v70,2013-03-07 07:22:00,
2013-03-07 02:27:00,51.8,40.4,30.13,NE,40,1.0,9.0,65,0.00,,,0.00,Weather View 32 v70,2013-03-07 07:27:00,
2013-03-07 02:32:00,51.4,40.0,30.13,NNE,21,0.0,9.0,65,0.00,,,0.00,Weather View 32 v70,2013-03-07 07:32:00,
2013-03-07 02:37:00,51.1,39.7,30.13,NNE,30,0.0,9.0,65,0.00,,,0.00,Weather View 32 v70,2013-03-07 07:37:00,
2013-03-07 02:42:00,50.8,39.4,30.13,NE,38,3.0,9.0,65,0.00,,,0.00,Weather View 32 v70,2013-03-07 07:42:00,
2013-03-07 02:47:00,50.5,39.2,30.13,NE,37,0.0,9.0,65,0.00,,,0.00,Weather View 32 v70,2013-03-07 07:47:00,
2013-03-07 02:52:00,50.3,39.0,30.13,NE,36,0.0,9.0,65,0.00,,,0.00,Weather View 32 v70,2013-03-07 07:52:00,
2013-03-07 02:57:00,50.2,39.3,30.13,NNE,33,0.0,9.0,66,0.00,,,0.00,Weather View 32 v70,2013-03-07 07:57:00,
2013-03-07 03:00:00,50.1,39.2,30.12,NE,35,2.0,8.0,66,0.00,,,0.00,Weather View 32 v70,2013-03-07 08:00:00,
2013-03-07 03:02:00,50.1,39.2,30.13,NE,34,0.0,8.0,66,0.00,,,0.00,Weather View 32 v70,2013-03-07 08:02:00,
2013-03-07 03:07:00,49.9,39.0,30.12,NNE,32,0.0,8.0,66,0.00,,,0.00,Weather View 32 v70,2013-03-07 08:07:00,
2013-03-07 03:12:00,49.8,38.9,30.12,NNE,26,0.0,7.0,66,0.00,,,0.00,Weather View 32 v70,2013-03-07 08:12:00,
2013-03-07 03:17:00,49.6,39.1,30.13,NNE,30,3.0,7.0,67,0.00,,,0.00,Weather View 32 v70,2013-03-07 08:17:00,
2013-03-07 03:22:00,49.6,39.1,30.13,NNE,30,0.0,7.0,67,0.00,,,0.00,Weather View 32 v70,2013-03-07 08:22:00,
2013-03-07 03:27:00,49.4,38.9,30.13,NNE,30,3.0,7.0,67,0.00,,,0.00,Weather View 32 v70,2013-03-07 08:27:00,
2013-03-07 03:32:00,49.3,38.8,30.13,NNE,32,0.0,6.0,67,0.00,,,0.00,Weather View 32 v70,2013-03-07 08:32:00,
2013-03-07 03:37:00,49.1,39.0,30.13,NNE,32,0.0,6.0,68,0.00,,,0.00,Weather View 32 v70,2013-03-07 08:37:00,
2013-03-07 03:42:00,49.0,38.9,30.13,NNE,32,0.0,6.0,68,0.00,,,0.00,Weather View 32 v70,2013-03-07 08:42:00,
2013-03-07 03:47:00,48.8,38.7,30.13,NNE,33,0.0,6.0,68,0.00,,,0.00,Weather View 32 v70,2013-03-07 08:47:00,
2013-03-07 03:52:00,48.7,38.6,30.13,NNE,33,1.0,6.0,68,0.00,,,0.00,Weather View 32 v70,2013-03-07 08:52:00,
2013-03-07 03:57:00,48.8,38.7,30.13,NE,34,0.0,6.0,68,0.00,,,0.00,Weather View 32 v70,2013-03-07 08:57:00,
2013-03-07 04:00:00,48.8,38.7,30.13,NE,34,0.0,6.0,68,0.00,,,0.00,Weather View 32 v70,2013-03-07 09:00:00,
2013-03-07 04:02:00,48.8,38.7,30.13,NE,36,3.0,6.0,68,0.00,,,0.00,Weather View 32 v70,2013-03-07 09:02:00,
2013-03-07 04:07:00,48.8,38.3,30.13,NE,36,3.0,6.0,67,0.00,,,0.00,Weather View 32 v70,2013-03-07 09:07:00,
2013-03-07 04:12:00,48.7,38.2,30.13,NE,36,0.0,6.0,67,0.00,,,0.00,Weather View 32 v70,2013-03-07 09:12:00,
2013-03-07 04:17:00,48.6,38.5,30.13,NNE,32,0.0,6.0,68,0.00,,,0.00,Weather View 32 v70,2013-03-07 09:17:00,
2013-03-07 04:22:00,48.5,38.4,30.13,NNE,32,0.0,6.0,68,0.00,,,0.00,Weather View 32 v70,2013-03-07 09:22:00,
2013-03-07 04:27:00,48.3,38.2,30.14,NNE,30,1.0,6.0,68,0.00,,,0.00,Weather View 32 v70,2013-03-07 09:27:00,
2013-03-07 04:32:00,48.2,38.5,30.14,NNE,33,0.0,5.0,69,0.00,,,0.00,Weather View 32 v70,2013-03-07 09:32:00,
2013-03-07 04:37:00,48.1,38.4,30.14,NNE,30,3.0,5.0,69,0.00,,,0.00,Weather View 32 v70,2013-03-07 09:37:00,
2013-03-07 04:42:00,48.1,38.4,30.14,NNE,30,0.0,5.0,69,0.00,,,0.00,Weather View 32 v70,2013-03-07 09:42:00,
2013-03-07 04:47:00,48.2,38.5,30.14,NNE,33,3.0,6.0,69,0.00,,,0.00,Weather View 32 v70,2013-03-07 09:47:00,
2013-03-07 04:52:00,48.3,38.6,30.14,NE,37,0.0,6.0,69,0.00,,,0.00,Weather View 32 v70,2013-03-07 09:52:00,
2013-03-07 04:57:00,48.2,38.5,30.14,NNE,33,1.0,6.0,69,0.00,,,0.00,Weather View 32 v70,2013-03-07 09:57:00,
2013-03-07 05:00:00,48.2,38.1,30.14,NE,36,3.0,6.0,68,0.00,,,0.00,Weather View 32 v70,2013-03-07 10:00:00,
2013-03-07 05:02:00,48.2,38.1,30.14,NNE,29,0.0,6.0,68,0.00,,,0.00,Weather View 32 v70,2013-03-07 10:02:00,
2013-03-07 05:07:00,48.2,37.7,30.14,NNE,24,3.0,7.0,67,0.00,,,0.00,Weather View 32 v70,2013-03-07 10:07:00,
2013-03-07 05:12:00,48.3,37.5,30.14,NNE,15,1.0,7.0,66,0.00,,,0.00,Weather View 32 v70,2013-03-07 10:12:00,
2013-03-07 05:17:00,48.3,37.1,30.14,NNE,28,0.0,9.0,65,0.00,,,0.00,Weather View 32 v70,2013-03-07 10:17:00,
2013-03-07 05:22:00,48.2,37.0,30.14,ENE,78,0.0,9.0,65,0.00,,,0.00,Weather View 32 v70,2013-03-07 10:22:00,
2013-03-07 05:27:00,48.1,36.9,30.14,NE,39,0.0,9.0,65,0.00,,,0.00,Weather View 32 v70,2013-03-07 10:27:00,
2013-03-07 05:32:00,48.1,36.5,30.14,NNE,23,3.0,9.0,64,0.00,,,0.00,Weather View 32 v70,2013-03-07 10:32:00,
2013-03-07 05:37:00,48.1,36.1,30.15,NE,40,4.0,9.0,63,0.00,,,0.00,Weather View 32 v70,2013-03-07 10:37:00,
2013-03-07 05:42:00,48.2,36.2,30.15,North,5,0.0,9.0,63,0.00,,,0.00,Weather View 32 v70,2013-03-07 10:42:00,
2013-03-07 05:48:00,48.0,36.0,30.15,NE,42,1.0,9.0,63,0.00,,,0.00,Weather View 32 v70,2013-03-07 10:48:00,
2013-03-07 05:53:00,47.9,35.9,30.15,NNE,29,5.0,9.0,63,0.00,,,0.00,Weather View 32 v70,2013-03-07 10:53:00,
2013-03-07 05:58:00,47.8,35.4,30.15,NE,41,4.0,9.0,62,0.00,,,0.00,Weather View 32 v70,2013-03-07 10:58:00,
2013-03-07 06:00:00,47.8,35.4,30.15,NE,48,3.0,9.0,62,0.00,,,0.00,Weather View 32 v70,2013-03-07 11:00:00,
2013-03-07 06:03:00,47.8,35.8,30.16,NE,42,1.0,9.0,63,0.00,,,0.00,Weather View 32 v70,2013-03-07 11:03:00,
2013-03-07 06:08:00,47.7,35.7,30.16,NE,36,0.0,9.0,63,0.00,,,0.00,Weather View 32 v70,2013-03-07 11:08:00,
2013-03-07 06:13:00,47.6,35.6,30.16,NNE,30,1.0,9.0,63,0.00,,,0.00,Weather View 32 v70,2013-03-07 11:13:00,
2013-03-07 06:18:00,47.4,35.8,30.16,NNE,24,0.0,9.0,64,0.00,,,0.00,Weather View 32 v70,2013-03-07 11:18:00,
2013-03-07 06:23:00,47.4,35.4,30.16,NNE,21,0.0,9.0,63,0.00,,,0.00,Weather View 32 v70,2013-03-07 11:23:00,
2013-03-07 06:28:00,47.4,35.8,30.16,NNE,30,3.0,10.0,64,0.00,,,0.00,Weather View 32 v70,2013-03-07 11:28:00,
2013-03-07 06:33:00,47.3,35.7,30.16,NE,39,0.0,10.0,64,0.00,,,0.00,Weather View 32 v70,2013-03-07 11:33:00,
2013-03-07 06:38:00,47.2,36.0,30.16,NNE,32,2.0,10.0,65,0.00,,,0.00,Weather View 32 v70,2013-03-07 11:38:00,
2013-03-07 06:43:00,47.1,35.9,30.16,NE,35,0.0,10.0,65,0.00,,,0.00,Weather View 32 v70,2013-03-07 11:43:00,
2013-03-07 06:48:00,46.9,36.1,30.16,NNE,26,0.0,10.0,66,0.00,,,0.00,Weather View 32 v70,2013-03-07 11:48:00,
2013-03-07 06:53:00,47.0,35.8,30.16,NE,44,5.0,11.0,65,0.00,,,0.00,Weather View 32 v70,2013-03-07 11:53:00,
2013-03-07 06:58:00,47.0,36.2,30.16,NNE,18,3.0,11.0,66,0.00,,,0.00,Weather View 32 v70,2013-03-07 11:58:00,
2013-03-07 07:00:00,47.0,36.2,30.16,NNE,12,3.0,11.0,66,0.00,,,0.00,Weather View 32 v70,2013-03-07 12:00:00,
2013-03-07 07:03:00,47.0,36.2,30.16,NE,46,5.0,11.0,66,0.00,,,0.00,Weather View 32 v70,2013-03-07 12:03:00,
2013-03-07 07:08:00,47.0,35.8,30.16,ENE,68,7.0,12.0,65,0.00,,,0.00,Weather View 32 v70,2013-03-07 12:08:00,
2013-03-07 07:13:00,47.2,36.0,30.16,ENE,64,11.0,12.0,65,0.01,,,0.00,Weather View 32 v70,2013-03-07 12:13:00,
2013-03-07 07:18:00,47.4,36.2,30.17,NNE,30,0.0,12.0,65,0.00,,,0.00,Weather View 32 v70,2013-03-07 12:18:00,
2013-03-07 07:24:00,47.5,36.3,30.17,NE,37,2.0,12.0,65,0.00,,,0.00,Weather View 32 v70,2013-03-07 12:24:00,
2013-03-07 07:29:00,47.7,36.5,30.17,NE,40,3.0,12.0,65,0.00,,,0.00,Weather View 32 v70,2013-03-07 12:29:00,
2013-03-07 07:34:00,47.9,37.1,30.17,NE,44,0.0,12.0,66,0.00,,,0.00,Weather View 32 v70,2013-03-07 12:34:00,
2013-03-07 07:39:00,48.2,37.4,30.18,NNE,30,0.0,12.0,66,0.00,,,0.00,Weather View 32 v70,2013-03-07 12:39:00,
2013-03-07 07:44:00,48.4,37.2,30.18,NE,43,0.0,12.0,65,0.00,,,0.00,Weather View 32 v70,2013-03-07 12:44:00,
2013-03-07 07:49:00,48.5,37.3,30.18,NE,52,1.0,12.0,65,0.00,,,0.00,Weather View 32 v70,2013-03-07 12:49:00,
2013-03-07 07:54:00,48.7,37.4,30.19,NE,52,0.0,12.0,65,0.00,,,0.00,Weather View 32 v70,2013-03-07 12:54:00,
2013-03-07 07:59:00,48.9,37.6,30.19,NE,44,0.0,12.0,65,0.00,,,0.00,Weather View 32 v70,2013-03-07 12:59:00,
2013-03-07 08:00:00,48.9,37.6,30.19,NE,42,0.0,12.0,65,0.00,,,0.00,Weather View 32 v70,2013-03-07 13:00:00,
2013-03-07 08:04:00,49.1,37.8,30.19,NNE,32,0.0,12.0,65,0.00,,,0.00,Weather View 32 v70,2013-03-07 13:04:00,
2013-03-07 08:09:00,49.4,37.7,30.19,East,96,2.0,11.0,64,0.00,,,0.00,Weather View 32 v70,2013-03-07 13:09:00,
2013-03-07 08:14:00,49.6,37.9,30.19,East,82,0.0,11.0,64,0.00,,,0.00,Weather View 32 v70,2013-03-07 13:14:00,
2013-03-07 08:19:00,49.7,37.2,30.20,NNE,32,3.0,12.0,62,0.00,,,0.00,Weather View 32 v70,2013-03-07 13:19:00,
2013-03-07 08:24:00,49.6,37.5,30.20,NNE,26,0.0,12.0,63,0.00,,,0.00,Weather View 32 v70,2013-03-07 13:24:00,
2013-03-07 08:29:00,49.8,37.7,30.20,NE,36,3.0,12.0,63,0.00,,,0.00,Weather View 32 v70,2013-03-07 13:29:00,
2013-03-07 08:34:00,49.8,37.3,30.20,NE,36,0.0,12.0,62,0.00,,,0.00,Weather View 32 v70,2013-03-07 13:34:00,
2013-03-07 08:40:00,50.3,37.8,30.20,NNE,33,4.0,12.0,62,0.00,,,0.00,Weather View 32 v70,2013-03-07 13:40:00,
2013-03-07 08:45:00,50.4,37.4,30.20,NE,38,4.0,12.0,61,0.00,,,0.00,Weather View 32 v70,2013-03-07 13:45:00,
2013-03-07 08:50:00,50.6,37.2,30.20,NNE,17,0.0,12.0,60,0.00,,,0.00,Weather View 32 v70,2013-03-07 13:50:00,
2013-03-07 08:55:00,51.0,37.6,30.21,NE,36,0.0,12.0,60,0.00,,,0.00,Weather View 32 v70,2013-03-07 13:55:00,
2013-03-07 09:00:00,51.7,37.4,30.21,NE,34,3.0,12.0,58,0.00,,,0.00,Weather View 32 v70,2013-03-07 14:00:00,
2013-03-07 09:05:00,51.6,37.7,30.21,East,84,0.0,12.0,59,0.00,,,0.00,Weather View 32 v70,2013-03-07 14:05:00,
2013-03-07 09:10:00,51.7,36.9,30.21,NNE,14,0.0,12.0,57,0.00,,,0.00,Weather View 32 v70,2013-03-07 14:10:00,
2013-03-07 09:15:00,51.8,37.0,30.21,NNE,19,1.0,12.0,57,0.00,,,0.00,Weather View 32 v70,2013-03-07 14:15:00,
2013-03-07 09:20:00,52.2,36.9,30.21,NE,40,10.0,12.0,56,0.00,,,0.00,Weather View 32 v70,2013-03-07 14:20:00,
2013-03-07 09:25:00,52.1,36.9,30.21,North,360,0.0,12.0,56,0.00,,,0.00,Weather View 32 v70,2013-03-07 14:25:00,
2013-03-07 09:30:00,52.8,37.0,30.21,NE,34,2.0,12.0,55,0.00,,,0.00,Weather View 32 v70,2013-03-07 14:30:00,
2013-03-07 09:35:00,52.8,36.6,30.21,NNE,22,5.0,11.0,54,0.01,,,0.00,Weather View 32 v70,2013-03-07 14:35:00,
2013-03-07 09:40:00,53.2,36.5,30.21,NNE,17,1.0,11.0,53,0.00,,,0.00,Weather View 32 v70,2013-03-07 14:40:00,
2013-03-07 09:45:00,53.7,36.9,30.21,NNE,24,0.0,11.0,53,0.00,,,0.00,Weather View 32 v70,2013-03-07 14:45:00,
2013-03-07 09:50:00,54.5,37.2,30.21,North,360,1.0,11.0,52,0.00,,,0.00,Weather View 32 v70,2013-03-07 14:50:00,
2013-03-07 09:55:00,55.1,37.3,30.21,North,360,1.0,11.0,51,0.00,,,0.00,Weather View 32 v70,2013-03-07 14:55:00,
2013-03-07 10:00:00,55.2,37.8,30.21,NNE,19,2.0,11.0,52,0.00,,,0.00,Weather View 32 v70,2013-03-07 15:00:00,
2013-03-07 10:01:00,55.2,37.8,30.22,NNE,16,3.0,11.0,52,0.00,,,0.00,Weather View 32 v70,2013-03-07 15:01:00,
2013-03-07 10:06:00,55.4,37.5,30.22,NNE,29,4.0,11.0,51,0.00,,,0.00,Weather View 32 v70,2013-03-07 15:06:00,
2013-03-07 10:11:00,54.6,36.3,30.22,NE,34,3.0,11.0,50,0.00,,,0.00,Weather View 32 v70,2013-03-07 15:11:00,
2013-03-07 10:16:00,54.2,36.4,30.22,NNE,17,0.0,11.0,51,0.00,,,0.00,Weather View 32 v70,2013-03-07 15:16:00,
2013-03-07 10:21:00,54.8,36.5,30.22,NNE,19,0.0,11.0,50,0.00,,,0.00,Weather View 32 v70,2013-03-07 15:21:00,
2013-03-07 10:26:00,55.2,36.3,30.22,ENE,59,1.0,10.0,49,0.00,,,0.00,Weather View 32 v70,2013-03-07 15:26:00,
2013-03-07 10:31:00,55.0,36.2,30.21,NE,49,1.0,10.0,49,0.00,,,0.00,Weather View 32 v70,2013-03-07 15:31:00,
2013-03-07 10:36:00,55.3,36.9,30.22,NE,34,0.0,10.0,50,0.00,,,0.00,Weather View 32 v70,2013-03-07 15:36:00,
2013-03-07 10:41:00,56.2,37.3,30.21,NNW,337,0.0,10.0,49,0.00,,,0.00,Weather View 32 v70,2013-03-07 15:41:00,
2013-03-07 10:46:00,56.4,37.4,30.22,NNE,29,0.0,10.0,49,0.00,,,0.00,Weather View 32 v70,2013-03-07 15:46:00,
2013-03-07 10:51:00,56.1,37.2,30.22,NE,46,2.0,10.0,49,0.00,,,0.00,Weather View 32 v70,2013-03-07 15:51:00,
2013-03-07 10:57:00,56.7,37.7,30.22,NNW,333,2.0,10.0,49,0.00,,,0.00,Weather View 32 v70,2013-03-07 15:57:00,
2013-03-07 11:00:00,57.0,37.5,30.22,NW,324,0.0,9.0,48,0.00,,,0.00,Weather View 32 v70,2013-03-07 16:00:00,
2013-03-07 11:02:00,57.3,38.3,30.22,WNW,292,0.0,9.0,49,0.00,,,0.00,Weather View 32 v70,2013-03-07 16:02:00,
2013-03-07 11:07:00,58.3,39.2,30.22,North,360,0.0,8.0,49,0.00,,,0.00,Weather View 32 v70,2013-03-07 16:07:00,
2013-03-07 11:12:00,59.2,38.9,30.22,NW,320,0.0,8.0,47,0.00,,,0.00,Weather View 32 v70,2013-03-07 16:12:00,
2013-03-07 11:17:00,59.2,40.0,30.22,NNW,340,0.0,8.0,49,0.00,,,0.00,Weather View 32 v70,2013-03-07 16:17:00,
2013-03-07 11:22:00,59.5,38.7,30.22,North,360,3.0,8.0,46,0.00,,,0.00,Weather View 32 v70,2013-03-07 16:22:00,
2013-03-07 11:27:00,59.4,39.1,30.22,NNW,338,3.0,8.0,47,0.00,,,0.00,Weather View 32 v70,2013-03-07 16:27:00,
2013-03-07 11:32:00,59.1,38.8,30.22,NNE,26,3.0,7.0,47,0.00,,,0.00,Weather View 32 v70,2013-03-07 16:32:00,
2013-03-07 11:37:00,59.1,38.8,30.22,NNE,33,0.0,7.0,47,0.00,,,0.00,Weather View 32 v70,2013-03-07 16:37:00,
2013-03-07 11:42:00,59.1,39.4,30.22,North,10,5.0,7.0,48,0.00,,,0.00,Weather View 32 v70,2013-03-07 16:42:00,
2013-03-07 11:47:00,59.2,40.0,30.22,North,5,0.0,7.0,49,0.00,,,0.00,Weather View 32 v70,2013-03-07 16:47:00,
2013-03-07 11:52:00,59.6,39.3,30.22,NNE,17,1.0,7.0,47,0.00,,,0.00,Weather View 32 v70,2013-03-07 16:52:00,
2013-03-07 11:57:00,59.5,39.2,30.21,NW,325,0.0,7.0,47,0.00,,,0.00,Weather View 32 v70,2013-03-07 16:57:00,
2013-03-07 12:00:00,59.3,39.0,30.21,WNW,292,2.0,7.0,47,0.00,,,0.00,Weather View 32 v70,2013-03-07 17:00:00,
2013-03-07 12:02:00,59.4,39.7,30.21,WNW,283,3.0,7.0,48,0.00,,,0.00,Weather View 32 v70,2013-03-07 17:02:00,
2013-03-07 12:07:00,60.0,39.7,30.22,NE,41,0.0,7.0,47,0.00,,,0.00,Weather View 32 v70,2013-03-07 17:07:00,
2013-03-07 12:12:00,60.2,39.3,30.22,NE,42,4.0,7.0,46,0.00,,,0.00,Weather View 32 v70,2013-03-07 17:12:00,
2013-03-07 12:17:00,60.0,38.0,30.21,West,279,4.0,7.0,44,0.00,,,0.00,Weather View 32 v70,2013-03-07 17:17:00,
2013-03-07 12:22:00,60.1,38.6,30.21,North,355,0.0,7.0,45,0.00,,,0.00,Weather View 32 v70,2013-03-07 17:22:00,
2013-03-07 12:27:00,60.2,38.2,30.21,West,263,3.0,7.0,44,0.00,,,0.00,Weather View 32 v70,2013-03-07 17:27:00,
2013-03-07 12:32:00,60.0,38.5,30.21,WNW,298,0.0,7.0,45,0.00,,,0.00,Weather View 32 v70,2013-03-07 17:32:00,
2013-03-07 12:37:00,60.6,39.1,30.22,NE,55,4.0,7.0,45,0.00,,,0.00,Weather View 32 v70,2013-03-07 17:37:00,
2013-03-07 12:42:00,61.0,38.3,30.21,NNW,348,4.0,8.0,43,0.00,,,0.00,Weather View 32 v70,2013-03-07 17:42:00,
2013-03-07 12:47:00,61.6,38.8,30.21,NW,316,5.0,8.0,43,0.00,,,0.00,Weather View 32 v70,2013-03-07 17:47:00,
2013-03-07 12:53:00,61.7,37.7,30.20,North,360,2.0,8.0,41,0.00,,,0.00,Weather View 32 v70,2013-03-07 17:53:00,
2013-03-07 12:58:00,61.7,39.5,30.20,NW,325,1.0,8.0,44,0.00,,,0.00,Weather View 32 v70,2013-03-07 17:58:00,
2013-03-07 13:00:00,61.8,38.4,30.20,North,9,5.0,8.0,42,0.00,,,0.00,Weather View 32 v70,2013-03-07 18:00:00,
2013-03-07 13:03:00,61.6,38.2,30.20,NNW,333,4.0,8.0,42,0.00,,,0.00,Weather View 32 v70,2013-03-07 18:03:00,
2013-03-07 13:08:00,61.6,38.8,30.20,NW,306,4.0,8.0,43,0.00,,,0.00,Weather View 32 v70,2013-03-07 18:08:00,
2013-03-07 13:13:00,61.3,39.2,30.20,NNW,327,4.0,8.0,44,0.00,,,0.00,Weather View 32 v70,2013-03-07 18:13:00,
2013-03-07 13:18:00,61.4,39.2,30.19,NW,317,0.0,9.0,44,0.00,,,0.00,Weather View 32 v70,2013-03-07 18:18:00,
2013-03-07 13:23:00,61.6,38.8,30.18,NW,310,0.0,9.0,43,0.00,,,0.00,Weather View 32 v70,2013-03-07 18:23:00,
2013-03-07 13:28:00,61.6,39.4,30.18,NW,315,5.0,9.0,44,0.00,,,0.00,Weather View 32 v70,2013-03-07 18:28:00,
2013-03-07 13:33:00,62.2,39.4,30.18,NE,45,5.0,9.0,43,0.00,,,0.00,Weather View 32 v70,2013-03-07 18:33:00,
2013-03-07 13:38:00,61.6,39.4,30.18,North,5,0.0,9.0,44,0.00,,,0.00,Weather View 32 v70,2013-03-07 18:38:00,
2013-03-07 13:43:00,62.2,40.0,30.18,NNW,337,2.0,9.0,44,0.00,,,0.00,Weather View 32 v70,2013-03-07 18:43:00,
2013-03-07 13:49:00,62.5,40.2,30.18,NNW,333,1.0,9.0,44,0.00,,,0.00,Weather View 32 v70,2013-03-07 18:49:00,
2013-03-07 13:54:00,62.7,39.8,30.18,NNW,334,0.0,9.0,43,0.00,,,0.00,Weather View 32 v70,2013-03-07 18:54:00,
2013-03-07 13:59:00,62.2,40.0,30.18,WNW,286,3.0,9.0,44,0.00,,,0.00,Weather View 32 v70,2013-03-07 18:59:00,
2013-03-07 14:00:00,62.0,39.8,30.18,WNW,294,3.0,9.0,44,0.00,,,0.00,Weather View 32 v70,2013-03-07 19:00:00,
2013-03-07 14:04:00,61.8,40.8,30.18,WNW,299,4.0,9.0,46,0.00,,,0.00,Weather View 32 v70,2013-03-07 19:04:00,
2013-03-07 14:09:00,62.0,40.9,30.18,West,271,0.0,9.0,46,0.00,,,0.00,Weather View 32 v70,2013-03-07 19:09:00,
2013-03-07 14:14:00,62.3,40.6,30.18,WNW,287,0.0,9.0,45,0.00,,,0.00,Weather View 32 v70,2013-03-07 19:14:00,
2013-03-07 14:19:00,62.7,41.6,30.17,WNW,289,3.0,8.0,46,0.00,,,0.00,Weather View 32 v70,2013-03-07 19:19:00,
2013-03-07 14:24:00,62.6,40.9,30.17,NW,319,3.0,8.0,45,0.00,,,0.00,Weather View 32 v70,2013-03-07 19:24:00,
2013-03-07 14:29:00,62.8,41.7,30.17,WNW,298,2.0,8.0,46,0.00,,,0.00,Weather View 32 v70,2013-03-07 19:29:00,
2013-03-07 14:34:00,61.6,41.7,30.16,West,280,2.0,10.0,48,0.00,,,0.00,Weather View 32 v70,2013-03-07 19:34:00,
2013-03-07 14:39:00,61.8,41.9,30.16,WNW,287,0.0,10.0,48,0.00,,,0.00,Weather View 32 v70,2013-03-07 19:39:00,
2013-03-07 14:44:00,62.4,41.9,30.16,West,265,0.0,10.0,47,0.00,,,0.00,Weather View 32 v70,2013-03-07 19:44:00,
2013-03-07 14:49:00,61.7,41.2,30.17,West,275,5.0,10.0,47,0.00,,,0.00,Weather View 32 v70,2013-03-07 19:49:00,
2013-03-07 14:54:00,61.6,42.2,30.17,NW,319,1.0,10.0,49,0.00,,,0.00,Weather View 32 v70,2013-03-07 19:54:00,
2013-03-07 14:59:00,61.1,42.8,30.17,West,279,8.0,10.0,51,0.00,,,0.00,Weather View 32 v70,2013-03-07 19:59:00,
2013-03-07 15:00:00,61.1,42.8,30.17,West,279,8.0,10.0,51,0.00,,,0.00,Weather View 32 v70,2013-03-07 20:00:00,
2013-03-07 15:04:00,60.4,42.1,30.17,West,281,4.0,10.0,51,0.01,,,0.00,Weather View 32 v70,2013-03-07 20:04:00,
2013-03-07 15:09:00,60.5,43.2,30.17,WNW,288,0.0,10.0,53,0.01,,,0.00,Weather View 32 v70,2013-03-07 20:09:00,
2013-03-07 15:14:00,61.4,43.1,30.17,WNW,294,3.0,10.0,51,0.00,,,0.00,Weather View 32 v70,2013-03-07 20:14:00,
2013-03-07 15:19:00,61.4,43.1,30.17,West,277,1.0,10.0,51,0.00,,,0.00,Weather View 32 v70,2013-03-07 20:19:00,
2013-03-07 15:25:00,61.8,42.9,30.17,West,262,5.0,10.0,50,0.00,,,0.00,Weather View 32 v70,2013-03-07 20:25:00,
2013-03-07 15:30:00,60.8,43.0,30.16,West,279,3.0,10.0,52,0.00,,,0.00,Weather View 32 v70,2013-03-07 20:30:00,
2013-03-07 15:35:00,61.2,43.9,30.17,WNW,287,4.0,10.0,53,0.00,,,0.00,Weather View 32 v70,2013-03-07 20:35:00,
2013-03-07 15:40:00,61.2,43.4,30.17,West,264,5.0,10.0,52,0.00,,,0.00,Weather View 32 v70,2013-03-07 20:40:00,
2013-03-07 15:45:00,61.3,43.5,30.17,WNW,295,5.0,10.0,52,0.00,,,0.00,Weather View 32 v70,2013-03-07 20:45:00,
2013-03-07 15:50:00,61.2,43.9,30.18,West,261,2.0,10.0,53,0.00,,,0.00,Weather View 32 v70,2013-03-07 20:50:00,
2013-03-07 15:55:00,60.7,43.4,30.17,WNW,283,5.0,12.0,53,0.00,,,0.00,Weather View 32 v70,2013-03-07 20:55:00,
2013-03-07 16:00:00,60.2,43.9,30.17,WNW,303,3.0,12.0,55,0.00,,,0.00,Weather View 32 v70,2013-03-07 21:00:00,
2013-03-07 16:05:00,59.9,43.7,30.17,West,276,2.0,12.0,55,0.00,,,0.00,Weather View 32 v70,2013-03-07 21:05:00,
2013-03-07 16:10:00,59.5,43.8,30.17,West,274,5.0,12.0,56,0.00,,,0.00,Weather View 32 v70,2013-03-07 21:10:00,
2013-03-07 16:15:00,59.3,44.0,30.16,NNW,333,3.0,12.0,57,0.00,,,0.00,Weather View 32 v70,2013-03-07 21:15:00,
2013-03-07 16:20:00,59.9,44.6,30.16,WNW,293,1.0,12.0,57,0.00,,,0.00,Weather View 32 v70,2013-03-07 21:20:00,
2013-03-07 16:25:00,60.3,45.0,30.16,NNW,332,1.0,12.0,57,0.00,,,0.00,Weather View 32 v70,2013-03-07 21:25:00,
2013-03-07 16:30:00,60.1,44.3,30.17,WNW,290,6.0,12.0,56,0.00,,,0.00,Weather View 32 v70,2013-03-07 21:30:00,
2013-03-07 16:35:00,59.7,43.9,30.16,WNW,286,2.0,12.0,56,0.00,,,0.00,Weather View 32 v70,2013-03-07 21:35:00,
2013-03-07 16:40:00,59.8,44.5,30.16,NNW,335,2.0,12.0,57,0.00,,,0.00,Weather View 32 v70,2013-03-07 21:40:00,
2013-03-07 16:45:00,59.7,44.4,30.16,WNW,295,0.0,12.0,57,0.00,,,0.00,Weather View 32 v70,2013-03-07 21:45:00,
2013-03-07 16:50:00,59.6,44.3,30.16,WNW,286,1.0,12.0,57,0.00,,,0.00,Weather View 32 v70,2013-03-07 21:50:00,
2013-03-07 16:55:00,59.5,44.7,30.16,WNW,286,0.0,10.0,58,0.00,,,0.00,Weather View 32 v70,2013-03-07 21:55:00,
2013-03-07 17:00:00,59.5,44.7,30.15,West,270,2.0,10.0,58,0.00,,,0.00,Weather View 32 v70,2013-03-07 22:00:00,
2013-03-07 17:05:00,59.6,45.7,30.15,NNW,343,2.0,10.0,60,0.00,,,0.00,Weather View 32 v70,2013-03-07 22:05:00,
2013-03-07 17:10:00,59.6,45.2,30.15,NW,310,0.0,8.0,59,0.00,,,0.00,Weather View 32 v70,2013-03-07 22:10:00,
2013-03-07 17:15:00,59.6,45.7,30.15,WSW,246,4.0,8.0,60,0.00,,,0.00,Weather View 32 v70,2013-03-07 22:15:00,
2013-03-07 17:20:00,59.1,44.8,30.15,West,278,2.0,8.0,59,0.00,,,0.00,Weather View 32 v70,2013-03-07 22:20:00,
2013-03-07 17:25:00,59.1,45.2,30.15,West,280,3.0,8.0,60,0.00,,,0.00,Weather View 32 v70,2013-03-07 22:25:00,
2013-03-07 17:30:00,59.2,45.7,30.15,WNW,295,3.0,8.0,61,0.00,,,0.00,Weather View 32 v70,2013-03-07 22:30:00,
2013-03-07 17:35:00,59.0,45.1,30.15,WNW,291,1.0,7.0,60,0.00,,,0.00,Weather View 32 v70,2013-03-07 22:35:00,
2013-03-07 17:40:00,58.8,45.3,30.15,WNW,294,1.0,7.0,61,0.00,,,0.00,Weather View 32 v70,2013-03-07 22:40:00,
2013-03-07 17:45:00,58.4,45.4,30.15,WSW,257,1.0,6.0,62,0.00,,,0.00,Weather View 32 v70,2013-03-07 22:45:00,
2013-03-07 17:50:00,58.0,45.9,30.16,West,260,2.0,6.0,64,0.00,,,0.00,Weather View 32 v70,2013-03-07 22:50:00,
2013-03-07 17:56:00,57.9,45.8,30.16,West,278,2.0,6.0,64,0.00,,,0.00,Weather View 32 v70,2013-03-07 22:56:00,
2013-03-07 18:00:00,57.7,45.6,30.16,West,275,4.0,6.0,64,0.00,,,0.00,Weather View 32 v70,2013-03-07 23:00:00,
2013-03-07 18:01:00,57.6,45.5,30.16,West,277,4.0,6.0,64,0.00,,,0.00,Weather View 32 v70,2013-03-07 23:01:00,
2013-03-07 18:06:00,57.5,45.8,30.16,West,279,3.0,6.0,65,0.00,,,0.00,Weather View 32 v70,2013-03-07 23:06:00,
2013-03-07 18:11:00,57.2,45.5,30.15,West,280,3.0,6.0,65,0.00,,,0.00,Weather View 32 v70,2013-03-07 23:11:00,
2013-03-07 18:16:00,56.7,45.4,30.16,West,280,2.0,6.0,66,0.00,,,0.00,Weather View 32 v70,2013-03-07 23:16:00,
2013-03-07 18:21:00,56.2,45.4,30.16,West,281,0.0,6.0,67,0.00,,,0.00,Weather View 32 v70,2013-03-07 23:21:00,
2013-03-07 18:26:00,55.7,45.7,30.16,West,281,1.0,6.0,69,0.00,,,0.00,Weather View 32 v70,2013-03-07 23:26:00,
2013-03-07 18:31:00,55.2,45.6,30.17,West,281,3.0,6.0,70,0.00,,,0.00,Weather View 32 v70,2013-03-07 23:31:00,
2013-03-07 18:36:00,54.9,45.3,30.17,WNW,282,4.0,6.0,70,0.00,,,0.00,Weather View 32 v70,2013-03-07 23:36:00,
2013-03-07 18:41:00,54.7,45.5,30.17,West,281,0.0,6.0,71,0.00,,,0.00,Weather View 32 v70,2013-03-07 23:41:00,
2013-03-07 18:46:00,54.5,45.6,30.17,West,281,4.0,6.0,72,0.00,,,0.00,Weather View 32 v70,2013-03-07 23:46:00,
2013-03-07 18:51:00,54.3,45.8,30.17,West,281,0.0,6.0,73,0.00,,,0.00,Weather View 32 v70,2013-03-07 23:51:00,
2013-03-07 18:56:00,54.2,45.7,30.18,WNW,282,0.0,6.0,73,0.00,,,0.00,Weather View 32 v70,2013-03-07 23:56:00,
2013-03-07 19:00:00,54.1,45.6,30.18,WNW,282,1.0,6.0,73,0.00,,,0.00,Weather View 32 v70,2013-03-08 00:00:00,
2013-03-07 19:01:00,54.0,45.5,30.18,West,281,1.0,6.0,73,0.00,,,0.00,Weather View 32 v70,2013-03-08 00:01:00,
2013-03-07 19:06:00,53.9,45.8,30.18,WNW,282,0.0,6.0,74,0.00,,,0.00,Weather View 32 v70,2013-03-08 00:06:00,
2013-03-07 19:11:00,53.7,45.6,30.18,WNW,282,4.0,6.0,74,0.00,,,0.00,Weather View 32 v70,2013-03-08 00:11:00,
2013-03-07 19:16:00,53.6,45.5,30.18,West,281,0.0,6.0,74,0.00,,,0.00,Weather View 32 v70,2013-03-08 00:16:00,
2013-03-07 19:21:00,53.5,45.8,30.18,WNW,282,0.0,6.0,75,0.00,,,0.00,Weather View 32 v70,2013-03-08 00:21:00,
2013-03-07 19:26:00,53.5,45.8,30.18,WNW,282,0.0,6.0,75,0.00,,,0.00,Weather View 32 v70,2013-03-08 00:26:00,
2013-03-07 19:31:00,53.5,46.1,30.18,WNW,282,0.0,4.0,76,0.00,,,0.00,Weather View 32 v70,2013-03-08 00:31:00,
2013-03-07 19:36:00,53.4,46.0,30.19,WNW,282,0.0,4.0,76,0.00,,,0.00,Weather View 32 v70,2013-03-08 00:36:00,
2013-03-07 19:41:00,53.3,46.3,30.19,WNW,282,0.0,4.0,77,0.01,,,0.00,Weather View 32 v70,2013-03-08 00:41:00,
2013-03-07 19:46:00,53.2,46.2,30.19,WNW,282,0.0,4.0,77,0.00,,,0.00,Weather View 32 v70,2013-03-08 00:46:00,
2013-03-07 19:51:00,53.2,46.2,30.19,WNW,282,0.0,4.0,77,0.00,,,0.00,Weather View 32 v70,2013-03-08 00:51:00,
2013-03-07 19:56:00,53.2,46.5,30.19,West,281,0.0,4.0,78,0.00,,,0.00,Weather View 32 v70,2013-03-08 00:56:00,
2013-03-07 20:00:00,53.1,46.4,30.19,WNW,282,0.0,4.0,78,0.00,,,0.00,Weather View 32 v70,2013-03-08 01:00:00,
2013-03-07 20:01:00,53.1,46.4,30.19,WNW,282,0.0,4.0,78,0.00,,,0.00,Weather View 32 v70,2013-03-08 01:01:00,
2013-03-07 20:07:00,53.0,46.3,30.19,WNW,282,0.0,4.0,78,0.00,,,0.00,Weather View 32 v70,2013-03-08 01:07:00,
2013-03-07 20:12:00,52.9,46.2,30.19,West,281,0.0,4.0,78,0.00,,,0.00,Weather View 32 v70,2013-03-08 01:12:00,
2013-03-07 20:17:00,52.9,46.6,30.20,West,281,0.0,3.0,79,0.00,,,0.00,Weather View 32 v70,2013-03-08 01:17:00,
2013-03-07 20:22:00,52.9,46.6,30.19,WNW,282,0.0,3.0,79,0.00,,,0.00,Weather View 32 v70,2013-03-08 01:22:00,
2013-03-07 20:27:00,52.9,46.6,30.19,WNW,284,0.0,3.0,79,0.00,,,0.00,Weather View 32 v70,2013-03-08 01:27:00,
2013-03-07 20:32:00,52.9,46.6,30.19,WNW,283,0.0,3.0,79,0.00,,,0.00,Weather View 32 v70,2013-03-08 01:32:00,
2013-03-07 20:37:00,52.9,46.6,30.19,WNW,284,0.0,3.0,79,0.00,,,0.00,Weather View 32 v70,2013-03-08 01:37:00,
2013-03-07 20:42:00,52.9,46.6,30.19,WNW,284,0.0,3.0,79,0.00,,,0.00,Weather View 32 v70,2013-03-08 01:42:00,
2013-03-07 20:47:00,52.9,46.6,30.19,WNW,283,0.0,3.0,79,0.00,,,0.00,Weather View 32 v70,2013-03-08 01:47:00,
2013-03-07 20:52:00,52.8,46.8,30.20,WNW,284,0.0,3.0,80,0.00,,,0.00,Weather View 32 v70,2013-03-08 01:52:00,
2013-03-07 20:57:00,52.8,46.8,30.20,WNW,284,0.0,3.0,80,0.00,,,0.00,Weather View 32 v70,2013-03-08 01:57:00,
2013-03-07 21:00:00,52.9,46.9,30.20,WNW,283,0.0,3.0,80,0.00,,,0.00,Weather View 32 v70,2013-03-08 02:00:00,
2013-03-07 21:02:00,52.9,46.9,30.20,WNW,283,0.0,3.0,80,0.00,,,0.00,Weather View 32 v70,2013-03-08 02:02:00,
2013-03-07 21:07:00,53.0,47.0,30.20,WNW,284,0.0,3.0,80,0.00,,,0.00,Weather View 32 v70,2013-03-08 02:07:00,
2013-03-07 21:12:00,53.0,47.0,30.20,WNW,284,0.0,3.0,80,0.00,,,0.00,Weather View 32 v70,2013-03-08 02:12:00,
2013-03-07 21:17:00,53.0,47.3,30.20,WNW,283,0.0,3.0,81,0.00,,,0.00,Weather View 32 v70,2013-03-08 02:17:00,
2013-03-07 21:22:00,52.9,47.2,30.20,WNW,284,0.0,3.0,81,0.00,,,0.00,Weather View 32 v70,2013-03-08 02:22:00,
2013-03-07 21:28:00,52.9,47.2,30.21,WNW,284,0.0,3.0,81,0.00,,,0.00,Weather View 32 v70,2013-03-08 02:28:00,
2013-03-07 21:33:00,52.8,47.1,30.21,WNW,283,0.0,3.0,81,0.00,,,0.00,Weather View 32 v70,2013-03-08 02:33:00,
2013-03-07 21:38:00,52.7,47.0,30.21,WNW,283,0.0,3.0,81,0.00,,,0.00,Weather View 32 v70,2013-03-08 02:38:00,
2013-03-07 21:43:00,52.6,47.2,30.20,WNW,283,0.0,3.0,82,0.00,,,0.00,Weather View 32 v70,2013-03-08 02:43:00,
2013-03-07 21:48:00,52.6,47.2,30.20,WNW,284,0.0,3.0,82,0.00,,,0.00,Weather View 32 v70,2013-03-08 02:48:00,
2013-03-07 21:53:00,52.4,47.1,30.21,WNW,284,0.0,3.0,82,0.00,,,0.00,Weather View 32 v70,2013-03-08 02:53:00,
2013-03-07 21:58:00,52.3,47.3,30.21,WNW,283,0.0,3.0,83,0.00,,,0.00,Weather View 32 v70,2013-03-08 02:58:00,
2013-03-07 22:03:00,52.1,47.1,30.21,WNW,284,0.0,3.0,83,0.00,,,0.00,Weather View 32 v70,2013-03-08 03:03:00,
2013-03-07 22:08:00,52.1,47.1,30.21,WNW,284,0.0,3.0,83,0.00,,,0.00,Weather View 32 v70,2013-03-08 03:08:00,
2013-03-07 22:13:00,52.0,47.0,30.21,WNW,284,0.0,3.0,83,0.00,,,0.00,Weather View 32 v70,2013-03-08 03:13:00,
2013-03-07 22:18:00,51.9,46.9,30.21,WNW,283,0.0,3.0,83,0.00,,,0.00,Weather View 32 v70,2013-03-08 03:18:00,
2013-03-07 22:23:00,51.8,47.1,30.21,WNW,283,0.0,3.0,84,0.00,,,0.00,Weather View 32 v70,2013-03-08 03:23:00,
2013-03-07 22:28:00,51.7,47.0,30.20,WNW,284,0.0,0.0,84,0.00,,,0.00,Weather View 32 v70,2013-03-08 03:28:00,
2013-03-07 22:33:00,51.6,46.9,30.21,WNW,284,0.0,0.0,84,0.00,,,0.00,Weather View 32 v70,2013-03-08 03:33:00,
2013-03-07 22:38:00,51.4,46.7,30.20,WNW,284,0.0,0.0,84,0.00,,,0.00,Weather View 32 v70,2013-03-08 03:38:00,
2013-03-07 22:43:00,51.3,46.9,30.20,WNW,283,0.0,0.0,85,0.00,,,0.00,Weather View 32 v70,2013-03-08 03:43:00,
2013-03-07 22:48:00,51.2,46.8,30.20,WNW,284,0.0,0.0,85,0.00,,,0.00,Weather View 32 v70,2013-03-08 03:48:00,
2013-03-07 22:53:00,51.0,46.6,30.20,WNW,284,0.0,0.0,85,0.00,,,0.00,Weather View 32 v70,2013-03-08 03:53:00,
2013-03-07 22:58:00,50.9,46.5,30.20,WNW,283,0.0,0.0,85,0.00,,,0.00,Weather View 32 v70,2013-03-08 03:58:00,
2013-03-07 23:00:00,50.9,46.5,30.20,WNW,283,0.0,0.0,85,0.00,,,0.00,Weather View 32 v70,2013-03-08 04:00:00,
2013-03-07 23:03:00,50.8,46.8,30.20,WNW,284,0.0,0.0,86,0.00,,,0.00,Weather View 32 v70,2013-03-08 04:03:00,
2013-03-07 23:08:00,50.6,46.6,30.20,WNW,284,0.0,0.0,86,0.00,,,0.00,Weather View 32 v70,2013-03-08 04:08:00,
2013-03-07 23:13:00,50.4,46.4,30.20,WNW,283,0.0,0.0,86,0.00,,,0.00,Weather View 32 v70,2013-03-08 04:13:00,
2013-03-07 23:18:00,50.3,46.3,30.20,WNW,284,0.0,0.0,86,0.00,,,0.00,Weather View 32 v70,2013-03-08 04:18:00,
2013-03-07 23:23:00,50.2,46.2,30.20,WNW,284,0.0,0.0,86,0.01,,,0.00,Weather View 32 v70,2013-03-08 04:23:00,
2013-03-07 23:28:00,50.1,46.1,30.20,WNW,283,0.0,0.0,86,0.00,,,0.00,Weather View 32 v70,2013-03-08 04:28:00,
2013-03-07 23:33:00,50.0,46.0,30.20,WNW,284,0.0,0.0,86,0.00,,,0.00,Weather View 32 v70,2013-03-08 04:33:00,
2013-03-07 23:38:00,49.8,46.1,30.20,WNW,284,0.0,0.0,87,0.00,,,0.00,Weather View 32 v70,2013-03-08 04:38:00,
2013-03-07 23:43:00,49.6,45.6,30.20,WNW,283,0.0,0.0,86,0.00,,,0.00,Weather View 32 v70,2013-03-08 04:43:00,
2013-03-07 23:48:00,49.3,45.6,30.19,WNW,284,0.0,0.0,87,0.00,,,0.00,Weather View 32 v70,2013-03-08 04:48:00,
2013-03-07 23:53:00,49.0,45.3,30.19,WNW,284,0.0,0.0,87,0.00,,,0.00,Weather View 32 v70,2013-03-08 04:53:00,
2013-03-07 23:58:00,48.8,45.1,30.19,WNW,283,0.0,0.0,87,0.00,,,0.00,Weather View 32 v70,2013-03-08 04:58:00,